CW2274 Weather Reports


time (UTC)temp
C
wind
direction
speed
KPH
gust
KPH
rain 1hr
cm
rain 24hr
cm
rain mn
cm
humidity
%
barometer
mb
20260507065518 18 296 1.6 3.2 0.00 0.00 0.00 29 1016.4
20260507065018 18 296 1.6 3.2 0.00 0.00 0.00 28 1016.3
20260507064514 18 296 0.0 3.2 0.00 0.00 0.00 27 1016.4
20260507064029 18 296 0.0 4.8 0.00 0.00 0.00 28 1016.4
20260507063524 18 296 1.6 3.2 0.00 0.00 0.00 27 1016.4
20260507063020 18 296 0.0 3.2 0.00 0.00 0.00 27 1016.4
20260507062516 18 296 1.6 3.2 0.00 0.00 0.00 26 1016.3
20260507062012 19 296 1.6 3.2 0.00 0.00 0.00 26 1016.3
20260507061511 18 296 1.6 6.4 0.00 0.00 0.00 27 1016.3
20260507061027 18 296 1.6 9.7 0.00 0.00 0.00 27 1016.3
20260507060523 19 299 1.6 9.7 0.00 0.00 0.00 26 1016.3
20260507060030 18 288 1.6 6.4 0.00 0.00 0.00 26 1016.3
20260507055511 19 290 1.6 6.4 0.00 0.00 0.00 26 1016.3
20260507055027 19 290 1.6 4.8 0.00 0.00 0.00 26 1016.3
20260507054523 19 290 1.6 6.4 0.00 0.00 0.00 26 1016.3
20260507054019 19 289 1.6 6.4 0.00 0.00 0.00 25 1016.4
20260507053518 19 288 1.6 6.4 0.00 0.00 0.00 25 1016.4
20260507053014 19 287 1.6 6.4 0.00 0.00 0.00 25 1016.3
20260507052530 19 290 1.6 6.4 0.00 0.00 0.00 25 1016.4
20260507052026 19 290 3.2 9.7 0.00 0.00 0.00 25 1016.2
20260507051522 20 286 1.6 11.3 0.00 0.00 0.00 25 1016.3
20260507051018 20 285 1.6 11.3 0.00 0.00 0.00 25 1016.3
20260507050513 20 288 3.2 6.4 0.00 0.00 0.00 25 1016.3
20260507050025 20 290 1.6 4.8 0.00 0.00 0.00 26 1016.2
20260507045527 20 290 1.6 3.2 0.00 0.00 0.00 25 1016.1
20260507045023 20 290 1.6 3.2 0.00 0.00 0.00 25 1016.1
20260507044518 20 290 0.0 4.8 0.00 0.00 0.00 25 1016.0
20260507044014 20 290 0.0 4.8 0.00 0.00 0.00 24 1016.0
20260507043530 20 290 0.0 11.3 0.00 0.00 0.00 24 1016.0
20260507043026 20 296 1.6 11.3 0.00 0.00 0.00 24 1015.8
20260507042525 20 293 3.2 6.4 0.00 0.00 0.00 24 1015.8
20260507042021 20 296 0.0 6.4 0.00 0.00 0.00 24 1015.8
20260507041517 21 292 1.6 8.0 0.00 0.00 0.00 23 1015.8
20260507041013 21 292 3.2 8.0 0.00 0.00 0.00 23 1015.8
20260507040528 21 294 1.6 8.0 0.00 0.00 0.00 23 1015.8
20260507040036 21 298 1.6 8.0 0.00 0.00 0.00 23 1015.7
20260507035517 21 293 1.6 6.4 0.00 0.00 0.00 23 1015.7
20260507035017 21 302 3.2 6.4 0.00 0.00 0.00 22 1015.7
20260507034533 21 292 1.6 8.0 0.00 0.00 0.00 22 1015.5
20260507034028 21 299 3.2 8.0 0.00 0.00 0.00 22 1015.6
20260507033524 21 304 1.6 4.8 0.00 0.00 0.00 22 1015.4
20260507033020 21 311 1.6 4.8 0.00 0.00 0.00 23 1015.5
20260507032516 21 289 1.6 4.8 0.00 0.00 0.00 23 1015.4
20260507032031 21 288 1.6 9.7 0.00 0.00 0.00 22 1015.4
20260507031527 22 286 3.2 9.7 0.00 0.00 0.00 22 1015.2
20260507031027 22 296 1.6 6.4 0.00 0.00 0.00 22 1015.3
20260507030522 22 300 1.6 6.4 0.00 0.00 0.00 22 1015.2
20260507030030 22 303 1.6 6.4 0.00 0.00 0.00 22 1015.1
20260507025531 22 308 1.6 4.8 0.00 0.00 0.00 21 1015.1
20260507025027 22 312 0.0 8.0 0.00 0.00 0.00 21 1015.0
20260507024523 22 312 1.6 8.0 0.00 0.00 0.00 21 1014.9
20260507024018 22 327 1.6 8.0 0.00 0.00 0.00 21 1014.8
20260507023518 22 295 1.6 8.0 0.00 0.00 0.00 21 1014.8
20260507023014 23 326 1.6 11.3 0.00 0.00 0.00 20 1014.8
20260507022530 23 323 1.6 4.8 0.00 0.00 0.00 20 1014.8
20260507022025 23 320 1.6 3.2 0.00 0.00 0.00 21 1014.7
20260507021521 23 320 1.6 4.8 0.00 0.00 0.00 20 1014.7
20260507021017 23 321 1.6 6.4 0.00 0.00 0.00 20 1014.7
20260507020533 23 298 1.6 8.0 0.00 0.00 0.00 20 1014.7
20260507020045 23 307 1.6 8.0 0.00 0.00 0.00 20 1014.6
20260507015526 23 348 0.0 8.0 0.00 0.00 0.00 21 1014.4
20260507015022 24 299 3.2 8.0 0.00 0.00 0.00 19 1014.5
20260507014517 24 326 1.6 8.0 0.00 0.00 0.00 19 1014.5
20260507014033 24 345 1.6 11.3 0.00 0.00 0.00 20 1014.5
20260507013021 24 324 1.6 8.0 0.00 0.00 0.00 19 1014.6
20260507012520 24 336 1.6 8.0 0.00 0.00 0.00 19 1014.6
20260507012016 25 317 1.6 8.0 0.00 0.00 0.00 20 1014.5
20260507011532 25 298 3.2 8.0 0.00 0.00 0.00 19 1014.5
20260507010524 25 356 4.8 11.3 0.00 0.00 0.00 20 1014.5
20260507010031 25 354 1.6 8.0 0.00 0.00 0.00 19 1014.6
20260507005532 25 312 3.2 8.0 0.00 0.00 0.00 19 1014.6
20260507005028 25 294 1.6 14.5 0.00 0.00 0.00 18 1014.5
20260507004528 25 290 6.4 14.5 0.00 0.00 0.00 19 1014.6
20260507004024 26 352 1.6 14.5 0.00 0.00 0.00 19 1014.5
20260507003520 26 273 3.2 14.5 0.00 0.00 0.00 19 1014.5
20260507003015 26 294 3.2 14.5 0.00 0.00 0.00 18 1014.5
20260507002531 26 277 3.2 14.5 0.00 0.00 0.00 18 1014.5
20260507002027 25 285 6.4 12.9 0.00 0.00 0.00 18 1014.4
20260507001523 26 302 4.8 11.3 0.00 0.00 0.00 18 1014.4
20260507001023 26 344 1.6 9.7 0.00 0.00 0.00 19 1014.6
20260507000518 26 1 1.6 11.3 0.00 0.00 0.00 18 1014.5
20260507000045 26 335 3.2 11.3 0.00 0.00 0.00 18 1014.5
20260506235526 26 298 3.2 14.5 0.00 0.00 0.00 18 1014.5
20260506235022 26 283 4.8 14.5 0.00 0.00 0.00 17 1014.5
20260506234518 26 290 4.8 12.9 0.00 0.00 0.00 17 1014.5
20260506234013 26 292 6.4 12.9 0.00 0.00 0.00 17 1014.4
20260506233532 26 273 3.2 12.9 0.00 0.00 0.00 17 1014.4
20260506233028 26 353 4.8 11.3 0.00 0.00 0.00 17 1014.4
20260506232026 26 19 3.2 9.7 0.00 0.00 0.00 18 1014.5
20260506231522 26 31 4.8 17.7 0.00 0.00 0.00 18 1014.5
20260506231018 26 333 6.4 17.7 0.00 0.00 0.00 18 1014.6
20260506230514 25 358 6.4 11.3 0.00 0.00 0.00 18 1014.7
20260506230043 26 31 4.8 9.7 0.00 0.00 0.00 18 1014.8
20260506225524 26 332 1.6 6.4 0.00 0.00 0.00 18 1014.8
20260506225023 26 309 1.6 6.4 0.00 0.00 0.00 19 1014.7
20260506224519 26 342 1.6 12.9 0.00 0.00 0.00 18 1014.8
20260506224014 26 2 6.4 12.9 0.00 0.00 0.00 19 1014.8
20260506223530 26 281 3.2 11.3 0.00 0.00 0.00 18 1014.7
20260506223026 27 276 4.8 9.7 0.00 0.00 0.00 17 1014.8
20260506222521 26 293 3.2 14.5 0.00 0.00 0.00 16 1014.9
20260506222017 27 312 6.4 16.1 0.00 0.00 0.00 18 1014.9
20260506221517 26 29 6.4 16.1 0.00 0.00 0.00 19 1014.9
20260506221032 26 301 6.4 14.5 0.00 0.00 0.00 19 1015.0
20260506220527 27 285 4.8 11.3 0.00 0.00 0.00 19 1015.1
20260506220036 27 250 6.4 11.3 0.00 0.00 0.00 19 1015.1
20260506215020 26 352 1.6 14.5 0.00 0.00 0.00 20 1015.3
20260506214517 25 9 4.8 11.3 0.00 0.00 0.00 22 1015.4
20260506214013 26 213 3.2 9.7 0.00 0.00 0.00 20 1015.4
20260506213514 25 36 1.6 9.7 0.00 0.00 0.00 22 1015.5
20260506213021 26 293 6.4 12.9 0.00 0.00 0.00 21 1015.5
20260506212517 26 287 4.8 12.9 0.00 0.00 0.00 20 1015.6
20260506212013 26 312 4.8 12.9 0.00 0.00 0.00 21 1015.6
20260506211528 25 24 6.4 12.9 0.00 0.00 0.00 20 1015.7
20260506211024 26 290 4.8 12.9 0.00 0.00 0.00 20 1015.8
20260506210028 25 19 1.6 9.7 0.00 0.00 0.00 23 1016.0
20260506205513 26 31 3.2 14.5 0.00 0.00 0.00 21 1016.0
20260506205029 26 267 4.8 14.5 0.00 0.00 0.00 22 1016.1
20260506204524 24 211 3.2 9.7 0.00 0.00 0.00 23 1016.0
20260506204020 25 272 3.2 11.3 0.00 0.00 0.00 23 1016.1
20260506203516 26 281 3.2 11.3 0.00 0.00 0.00 22 1016.3
20260506203032 25 287 1.6 4.8 0.00 0.00 0.00 22 1016.3
20260506202528 25 309 1.6 11.3 0.00 0.00 0.00 22 1016.4
20260506202027 26 290 1.6 11.3 0.00 0.00 0.00 23 1016.4
20260506201523 25 287 3.2 8.0 0.00 0.00 0.00 25 1016.4
20260506201019 26 360 1.6 8.0 0.00 0.00 0.00 24 1016.5
20260506200515 25 358 3.2 6.4 0.00 0.00 0.00 24 1016.5
20260506200042 24 173 3.2 14.5 0.00 0.00 0.00 26 1016.6
20260506195524 25 240 1.6 19.3 0.00 0.00 0.00 24 1016.7
20260506195019 25 221 4.8 19.3 0.00 0.00 0.00 26 1016.8
20260506194519 25 298 1.6 16.1 0.00 0.00 0.00 27 1016.8
20260506194014 26 290 9.7 16.1 0.00 0.00 0.00 24 1016.9
20260506193530 24 206 0.0 9.7 0.00 0.00 0.00 27 1016.9
20260506193026 23 205 1.6 9.7 0.00 0.00 0.00 27 1017.0
20260506192521 25 280 3.2 9.7 0.00 0.00 0.00 26 1017.2
20260506192017 23 347 1.6 8.0 0.00 0.00 0.00 28 1017.2
20260506191513 23 358 3.2 8.0 0.00 0.00 0.00 28 1017.3
20260506191013 24 330 3.2 12.9 0.00 0.00 0.00 27 1017.2
20260506190529 23 102 4.8 16.1 0.00 0.00 0.00 29 1017.3
20260506190037 24 81 4.8 16.1 0.00 0.00 0.00 26 1017.3
20260506185518 24 296 1.6 11.3 0.00 0.00 0.00 27 1017.3
20260506185014 24 287 3.2 11.3 0.00 0.00 0.00 28 1017.4
20260506184530 23 342 4.8 16.1 0.00 0.00 0.00 30 1017.5
20260506184026 23 277 1.6 16.1 0.00 0.00 0.00 28 1017.5
20260506183522 23 286 4.8 12.9 0.00 0.00 0.00 29 1017.4
20260506183021 23 49 6.4 11.3 0.00 0.00 0.00 28 1017.5
20260506182517 23 29 1.6 12.9 0.00 0.00 0.00 29 1017.7
20260506182013 23 270 3.2 14.5 0.00 0.00 0.00 30 1017.7
20260506181529 24 285 6.4 14.5 0.00 0.00 0.00 28 1017.7
20260506181025 23 292 4.8 12.9 0.00 0.00 0.00 29 1017.9
20260506180521 22 145 1.6 11.3 0.00 0.00 0.00 30 1018.0
20260506180028 23 330 1.6 6.4 0.00 0.00 0.00 30 1018.0
20260506175513 22 295 3.2 9.7 0.00 0.00 0.00 31 1018.0
20260506175029 22 284 4.8 9.7 0.00 0.00 0.00 31 1018.0
20260506174525 22 329 3.2 6.4 0.00 0.00 0.00 30 1018.0
20260506174021 21 126 3.2 8.0 0.00 0.00 0.00 32 1018.0
20260506173517 20 133 3.2 9.7 0.00 0.00 0.00 32 1018.0
20260506173013 21 104 4.8 14.5 0.00 0.00 0.00 31 1018.0
20260506172528 21 49 3.2 8.0 0.00 0.00 0.00 33 1018.0
20260506172028 21 43 4.8 9.7 0.00 0.00 0.00 32 1018.0
20260506171524 21 38 4.8 11.3 0.00 0.00 0.00 34 1017.9
20260506171020 21 66 1.6 6.4 0.00 0.00 0.00 36 1017.9
20260506170516 21 22 1.6 9.7 0.00 0.00 0.00 35 1017.9
20260506170043 21 13 3.2 9.7 0.00 0.00 0.00 37 1018.0
20260506165525 20 60 1.6 6.4 0.00 0.00 0.00 36 1018.0
20260506165020 20 64 1.6 6.4 0.00 0.00 0.00 41 1018.0
20260506164520 20 64 1.6 11.3 0.00 0.00 0.00 38 1017.9
20260506164016 20 83 4.8 11.3 0.00 0.00 0.00 38 1018.0
20260506163512 20 360 1.6 9.7 0.00 0.00 0.00 39 1017.9
20260506163027 20 27 4.8 9.7 0.00 0.00 0.00 39 1017.9
20260506162523 20 335 1.6 4.8 0.00 0.00 0.00 37 1017.7
20260506162059 20 352 3.2 4.8 0.00 0.00 0.00 42 1017.7
20260506161529 20 10 3.2 4.8 0.00 0.00 0.00 43 1017.7
20260506161025 20 344 1.6 4.8 0.00 0.00 0.00 44 1017.7
20260506160521 20 344 1.6 3.2 0.00 0.00 0.00 43 1017.8
20260506160033 19 73 0.0 6.4 0.00 0.00 0.00 45 1017.8
20260506155515 18 73 1.6 6.4 0.00 0.00 0.00 46 1017.7
20260506155031 18 88 1.6 8.0 0.00 0.00 0.00 47 1017.8
20260506154526 18 88 3.2 8.0 0.00 0.00 0.00 49 1017.7
20260506154023 18 94 3.2 6.4 0.00 0.00 0.00 47 1017.7
20260506153518 18 94 0.0 4.8 0.00 0.00 0.00 49 1017.7
20260506153014 18 94 1.6 4.8 0.00 0.00 0.00 49 1017.6
20260506152514 17 94 1.6 4.8 0.00 0.00 0.00 50 1017.7
20260506152030 17 98 1.6 3.2 0.00 0.00 0.00 51 1017.7
20260506151525 17 97 1.6 6.4 0.00 0.00 0.00 51 1017.7
20260506151022 17 98 3.2 6.4 0.00 0.00 0.00 52 1017.7
20260506150518 17 105 3.2 4.8 0.00 0.00 0.00 52 1017.7
20260506150045 16 106 1.6 4.8 0.00 0.00 0.00 55 1017.7
20260506145527 16 106 3.2 6.4 0.00 0.00 0.00 56 1017.6
20260506145027 16 108 4.8 6.4 0.00 0.00 0.00 57 1017.5
20260506144523 16 120 3.2 6.4 0.00 0.00 0.00 58 1017.6
20260506144018 15 128 3.2 6.4 0.00 0.00 0.00 58 1017.7
20260506143514 15 128 3.2 6.4 0.00 0.00 0.00 59 1017.6
20260506143030 15 272 3.2 4.8 0.00 0.00 0.00 61 1017.7
20260506142526 15 276 0.0 4.8 0.00 0.00 0.00 61 1017.7
20260506142022 15 275 1.6 4.8 0.00 0.00 0.00 61 1017.7
20260506141522 15 276 1.6 3.2 0.00 0.00 0.00 61 1017.7
20260506141018 15 275 1.6 3.2 0.00 0.00 0.00 64 1017.6
20260506140513 15 273 1.6 3.2 0.00 0.00 0.00 63 1017.7
20260506140042 13 271 1.6 4.8 0.00 0.00 0.00 65 1017.6
20260506135523 13 270 3.2 4.8 0.00 0.00 0.00 66 1017.5
20260506135018 13 271 3.2 4.8 0.00 0.00 0.00 68 1017.6
20260506134513 13 272 3.2 4.8 0.00 0.00 0.00 68 1017.5
20260506134013 13 271 0.0 0.0 0.00 0.00 0.00 69 1017.5
20260506133530 13 271 0.0 0.0 0.00 0.00 0.00 70 1017.5
20260506133026 13 271 0.0 0.0 0.00 0.00 0.00 71 1017.4
20260506132522 12 271 0.0 0.0 0.00 0.00 0.00 73 1017.3
20260506132018 12 271 0.0 0.0 0.00 0.00 0.00 75 1017.3
20260506131514 12 271 0.0 0.0 0.00 0.00 0.00 76 1017.3
20260506131029 12 271 0.0 0.0 0.00 0.00 0.00 77 1017.2
20260506130525 11 271 0.0 0.0 0.00 0.00 0.00 77 1017.1
20260506130036 11 271 0.0 0.0 0.00 0.00 0.00 76 1017.1
20260506125518 11 271 0.0 0.0 0.00 0.00 0.00 77 1017.1
20260506125014 11 271 0.0 0.0 0.00 0.00 0.00 77 1017.1
20260506124529 11 273 0.0 0.0 0.00 0.00 0.00 77 1017.1
20260506124025 11 273 0.0 1.6 0.00 0.00 0.00 78 1017.0
20260506123521 10 273 0.0 1.6 0.00 0.00 0.00 78 1017.0
20260506123018 10 273 0.0 0.0 0.00 0.00 0.00 77 1017.0
20260506122518 11 273 0.0 0.0 0.00 0.00 0.00 76 1016.8
20260506122014 11 273 0.0 0.0 0.00 0.00 0.00 77 1016.8
20260506121530 11 273 0.0 0.0 0.00 0.00 0.00 78 1016.8
20260506121025 11 273 0.0 0.0 0.00 0.00 0.00 76 1016.7
20260506120521 11 273 0.0 0.0 0.00 0.00 0.00 77 1016.7
20260506120029 11 273 0.0 0.0 0.00 0.00 0.00 78 1016.7
20260506115530 11 273 0.0 0.0 0.00 0.05 0.00 76 1016.6
20260506115030 11 273 0.0 0.0 0.00 0.05 0.00 76 1016.6
20260506114526 11 273 0.0 0.0 0.00 0.05 0.00 75 1016.5
20260506114021 11 273 0.0 0.0 0.00 0.05 0.00 73 1016.6
20260506113517 12 273 0.0 0.0 0.00 0.05 0.00 72 1016.4
20260506113013 12 273 0.0 0.0 0.00 0.05 0.00 70 1016.4
20260506112529 12 273 0.0 0.0 0.00 0.05 0.00 71 1016.3
20260506112025 11 273 0.0 0.0 0.00 0.05 0.00 72 1016.3
20260506111525 12 273 0.0 0.0 0.00 0.05 0.00 71 1016.3
20260506111020 12 273 0.0 0.0 0.00 0.05 0.00 69 1016.3
20260506110516 12 273 0.0 0.0 0.00 0.05 0.00 70 1016.3
20260506110042 12 273 0.0 0.0 0.00 0.05 0.00 71 1016.2
20260506105523 12 273 0.0 0.0 0.00 0.08 0.00 71 1016.2
20260506105019 11 273 0.0 0.0 0.00 0.08 0.00 72 1016.2
20260506104515 12 273 0.0 0.0 0.00 0.08 0.00 69 1016.1
20260506104015 12 273 0.0 1.6 0.00 0.08 0.00 72 1016.1
20260506103531 12 273 0.0 1.6 0.00 0.08 0.00 72 1016.0
20260506103026 12 273 1.6 3.2 0.00 0.08 0.00 72 1015.9
20260506102522 12 273 1.6 3.2 0.00 0.08 0.00 70 1016.0
20260506102018 12 273 0.0 0.0 0.00 0.08 0.00 69 1016.0
20260506101514 12 273 0.0 0.0 0.00 0.08 0.00 71 1015.8
20260506101030 12 273 0.0 0.0 0.00 0.08 0.00 70 1015.8
20260506100526 12 273 0.0 0.0 0.00 0.08 0.00 69 1015.8
20260506100037 12 273 0.0 0.0 0.00 0.08 0.00 70 1015.8
20260506095518 12 273 0.0 0.0 0.00 0.13 0.00 73 1015.7
20260506095014 12 273 0.0 0.0 0.00 0.13 0.00 72 1015.7
20260506094530 12 273 0.0 0.0 0.00 0.13 0.00 71 1015.6
20260506094025 12 273 0.0 1.6 0.00 0.13 0.00 70 1015.5
20260506093521 12 273 0.0 1.6 0.00 0.13 0.00 70 1015.6
20260506093017 12 273 0.0 1.6 0.00 0.13 0.00 71 1015.6
20260506092518 12 273 0.0 0.0 0.00 0.13 0.00 69 1015.7
20260506092014 13 273 0.0 1.6 0.00 0.13 0.00 68 1015.6
20260506091529 13 273 0.0 1.6 0.00 0.13 0.00 68 1015.6
20260506091025 13 273 0.0 1.6 0.00 0.13 0.00 67 1015.7
20260506090521 13 273 0.0 1.6 0.00 0.13 0.00 67 1015.7
20260506090028 13 273 0.0 0.0 0.00 0.13 0.00 67 1015.8
20260506085530 13 273 0.0 0.0 0.00 0.20 0.00 68 1015.6
20260506085030 13 273 0.0 0.0 0.00 0.20 0.00 67 1015.7
20260506084525 13 273 0.0 0.0 0.00 0.20 0.00 65 1015.7
20260506084021 14 273 0.0 1.6 0.00 0.20 0.00 63 1015.7
20260506083517 14 273 0.0 3.2 0.00 0.20 0.00 62 1015.7
20260506083013 14 273 0.0 3.2 0.00 0.20 0.00 62 1015.7
20260506082528 14 273 0.0 3.2 0.00 0.20 0.00 63 1015.7
20260506082024 15 273 0.0 3.2 0.00 0.20 0.00 61 1015.8
20260506081524 15 273 0.0 3.2 0.00 0.20 0.00 60 1015.8
20260506081019 15 273 0.0 3.2 0.00 0.20 0.00 59 1015.9
20260506080515 15 273 1.6 9.7 0.00 0.20 0.00 61 1015.9
20260506073512 15 273 0.0 3.2 0.00 0.36 0.00 63 1015.9
20260506073027 15 273 0.0 3.2 0.00 0.36 0.00 61 1015.9
20260506072522 15 273 0.0 1.6 0.00 0.36 0.00 59 1015.9
20260506072038 15 273 0.0 1.6 0.00 0.36 0.00 59 1015.9
20260506071526 15 273 0.0 3.2 0.00 0.36 0.00 58 1015.8
20260506071022 15 273 0.0 3.2 0.00 0.36 0.00 59 1015.8
20260506070517 15 273 1.6 3.2 0.00 0.36 0.00 61 1015.7